owner,sensor,date,latitude,longitude,vertical_datum,direction_of_sea_water_velocity,sea_water_speed,upward_sea_water_velocity,qcFlag 
TABS,ioos:station:wmo:42048:1,2013-04-01T00:00:00Z,27.9396,-96.8429,2.0,268.1875289,14.54727466,-99999.0,'11111222,11111222,99999999' 
TABS,ioos:station:wmo:42048:1,2013-04-01T00:30:00Z,27.9396,-96.8429,2.0,262.2806436,13.40143276,-99999.0,'11111222,11111222,99999999' 
TABS,ioos:station:wmo:42048:1,2013-04-01T01:00:00Z,27.9396,-96.8429,2.0,259.6467448,11.74114986,-99999.0,'11111222,11111222,99999999' 
TABS,ioos:station:wmo:42048:1,2013-04-01T01:30:00Z,27.9396,-96.8429,2.0,249.2722182,15.65315304,-99999.0,'11111222,11111222,99999999' 
TABS,ioos:station:wmo:42048:1,2013-04-01T02:00:00Z,27.9396,-96.8429,2.0,252.7416605,16.01082759,-99999.0,'11111222,11111222,99999999' 
TABS,ioos:station:wmo:42048:1,2013-04-01T02:30:00Z,27.9396,-96.8429,2.0,244.7824742,17.11065458,-99999.0,'11111222,11111222,99999999' 
TABS,ioos:station:wmo:42048:1,2013-04-01T03:00:00Z,27.9396,-96.8429,2.0,261.74535,17.62255657,-99999.0,'11111222,11111222,99999999' 
TABS,ioos:station:wmo:42048:1,2013-04-01T03:30:00Z,27.9396,-96.8429,2.0,261.9770071,20.34915477,-99999.0,'11111222,11111222,99999999' 
TABS,ioos:station:wmo:42048:1,2013-04-01T04:00:00Z,27.9396,-96.8429,2.0,258.1179645,21.03058012,-99999.0,'11111222,11111222,99999999' 
TABS,ioos:station:wmo:42048:1,2013-04-01T04:30:00Z,27.9396,-96.8429,2.0,253.3444255,21.17850325,-99999.0,'11111222,11111222,99999999' 
TABS,ioos:station:wmo:42048:1,2013-04-01T05:00:00Z,27.9396,-96.8429,2.0,254.1609248,16.96405907,-99999.0,'11111222,11111222,99999999' 
TABS,ioos:station:wmo:42048:1,2013-04-01T05:30:00Z,27.9396,-96.8429,2.0,252.9656114,14.09848573,-99999.0,'11111222,11111222,99999999' 
TABS,ioos:station:wmo:42048:1,2013-04-01T06:00:00Z,27.9396,-96.8429,2.0,257.1441782,11.41615084,-99999.0,'11111222,11111222,99999999' 
TABS,ioos:station:wmo:42048:1,2013-04-01T06:30:00Z,27.9396,-96.8429,2.0,258.066112,15.13713976,-99999.0,'11111222,11111222,99999999' 
TABS,ioos:station:wmo:42048:1,2013-04-01T07:00:00Z,27.9396,-96.8429,2.0,252.909812,16.29970859,-99999.0,'11111222,11111222,99999999' 
TABS,ioos:station:wmo:42048:1,2013-04-01T07:30:00Z,27.9396,-96.8429,2.0,252.3686473,15.55045015,-99999.0,'11111222,11111222,99999999' 
TABS,ioos:station:wmo:42048:1,2013-04-01T08:00:00Z,27.9396,-96.8429,2.0,258.0462365,16.41595565,-99999.0,'11111222,11111222,99999999' 
TABS,ioos:station:wmo:42048:1,2013-04-01T08:30:00Z,27.9396,-96.8429,2.0,260.2416385,12.74437915,-99999.0,'11111222,11111222,99999999' 
TABS,ioos:station:wmo:42048:1,2013-04-01T09:00:00Z,27.9396,-96.8429,2.0,250.4946205,13.20797486,-99999.0,'11111222,11111222,99999999' 
TABS,ioos:station:wmo:42048:1,2013-04-01T09:30:00Z,27.9396,-96.8429,2.0,245.476524,13.17880875,-99999.0,'11111222,11111222,99999999' 
TABS,ioos:station:wmo:42048:1,2013-04-01T10:00:00Z,27.9396,-96.8429,2.0,257.6830932,13.17319248,-99999.0,'11111222,11111222,99999999' 
TABS,ioos:station:wmo:42048:1,2013-04-01T10:30:00Z,27.9396,-96.8429,2.0,245.3779634,11.47315563,-99999.0,'11111222,11111222,99999999' 
TABS,ioos:station:wmo:42048:1,2013-04-01T11:00:00Z,27.9396,-96.8429,2.0,243.0091351,10.84075643,-99999.0,'11111222,11111222,99999999' 
TABS,ioos:station:wmo:42048:1,2013-04-01T11:30:00Z,27.9396,-96.8429,2.0,239.0200148,12.37533838,-99999.0,'11111222,11111222,99999999' 
TABS,ioos:station:wmo:42048:1,2013-04-01T12:00:00Z,27.9396,-96.8429,2.0,222.4021455,14.66632197,-99999.0,'11111222,11111222,99999999' 
TABS,ioos:station:wmo:42048:1,2013-04-01T12:30:00Z,27.9396,-96.8429,2.0,221.4777772,13.46753504,-99999.0,'11111222,11111222,99999999' 
TABS,ioos:station:wmo:42048:1,2013-04-01T13:00:00Z,27.9396,-96.8429,2.0,217.1808463,13.25419556,-99999.0,'11111222,11111222,99999999' 
TABS,ioos:station:wmo:42048:1,2013-04-01T13:30:00Z,27.9396,-96.8429,2.0,223.7371747,15.40452531,-99999.0,'11111222,11111222,99999999' 
TABS,ioos:station:wmo:42048:1,2013-04-01T14:00:00Z,27.9396,-96.8429,2.0,222.7466726,16.36803287,-99999.0,'11111222,11111222,99999999' 
TABS,ioos:station:wmo:42048:1,2013-04-01T14:30:00Z,27.9396,-96.8429,2.0,226.984978,13.47139933,-99999.0,'11111222,11111222,99999999' 
TABS,ioos:station:wmo:42048:1,2013-04-01T15:00:00Z,27.9396,-96.8429,2.0,221.5143538,13.60869208,-99999.0,'11111222,11111222,99999999' 
TABS,ioos:station:wmo:42048:1,2013-04-01T15:30:00Z,27.9396,-96.8429,2.0,215.6404868,18.08816187,-99999.0,'11111222,11111222,99999999' 
TABS,ioos:station:wmo:42048:1,2013-04-01T16:00:00Z,27.9396,-96.8429,2.0,216.8306542,23.53800544,-99999.0,'11111222,11111222,99999999' 
TABS,ioos:station:wmo:42048:1,2013-04-01T16:30:00Z,27.9396,-96.8429,2.0,213.2606054,28.88127594,-99999.0,'11111222,11111222,99999999' 
TABS,ioos:station:wmo:42048:1,2013-04-01T17:00:00Z,27.9396,-96.8429,2.0,217.4529432,29.07350684,-99999.0,'11111222,11111222,99999999' 
TABS,ioos:station:wmo:42048:1,2013-04-01T17:30:00Z,27.9396,-96.8429,2.0,212.4854549,27.18354098,-99999.0,'11111222,11111222,99999999' 
TABS,ioos:station:wmo:42048:1,2013-04-01T18:00:00Z,27.9396,-96.8429,2.0,212.0443953,26.27311363,-99999.0,'11111222,11111222,99999999' 
TABS,ioos:station:wmo:42048:1,2013-04-01T18:30:00Z,27.9396,-96.8429,2.0,214.2191252,25.51729805,-99999.0,'11111222,11111222,99999999' 
TABS,ioos:station:wmo:42048:1,2013-04-01T19:00:00Z,27.9396,-96.8429,2.0,210.6412936,24.09421715,-99999.0,'11111222,11111222,99999999' 
TABS,ioos:station:wmo:42048:1,2013-04-01T19:30:00Z,27.9396,-96.8429,2.0,223.7668815,21.03422449,-99999.0,'11111222,11111222,99999999' 
TABS,ioos:station:wmo:42048:1,2013-04-01T20:00:00Z,27.9396,-96.8429,2.0,229.4176309,19.36863702,-99999.0,'11111222,11111222,99999999' 
TABS,ioos:station:wmo:42048:1,2013-04-01T20:30:00Z,27.9396,-96.8429,2.0,243.1714661,19.47635746,-99999.0,'11111222,11111222,99999999' 
TABS,ioos:station:wmo:42048:1,2013-04-01T21:00:00Z,27.9396,-96.8429,2.0,253.1938831,15.46030077,-99999.0,'11111222,11111222,99999999' 
TABS,ioos:station:wmo:42048:1,2013-04-01T21:30:00Z,27.9396,-96.8429,2.0,261.6646752,19.38474916,-99999.0,'11111222,11111222,99999999' 
TABS,ioos:station:wmo:42048:1,2013-04-01T22:00:00Z,27.9396,-96.8429,2.0,262.0932263,19.91934989,-99999.0,'11111222,11111222,99999999' 
TABS,ioos:station:wmo:42048:1,2013-04-01T22:30:00Z,27.9396,-96.8429,2.0,263.3653554,23.02417208,-99999.0,'11111222,11111222,99999999' 
TABS,ioos:station:wmo:42048:1,2013-04-01T23:00:00Z,27.9396,-96.8429,2.0,262.527635,23.14654618,-99999.0,'11111222,11111222,99999999' 
TABS,ioos:station:wmo:42048:1,2013-04-01T23:30:00Z,27.9396,-96.8429,2.0,258.9314791,17.65845407,-99999.0,'11111222,11111222,99999999' 
TABS,ioos:station:wmo:42048:1,2013-04-02T00:00:00Z,27.9396,-96.8429,2.0,260.3345352,18.58377787,-99999.0,'11111222,11111222,99999999' 
TABS,ioos:station:wmo:42048:1,2013-04-02T00:30:00Z,27.9396,-96.8429,2.0,247.1364749,23.55021231,-99999.0,'11111222,11111222,99999999' 
TABS,ioos:station:wmo:42048:1,2013-04-02T01:00:00Z,27.9396,-96.8429,2.0,238.978249,22.1593434,-99999.0,'11111222,11111222,99999999' 
TABS,ioos:station:wmo:42048:1,2013-04-02T01:30:00Z,27.9396,-96.8429,2.0,245.4292642,23.25578208,-99999.0,'11111222,11111222,99999999' 
TABS,ioos:station:wmo:42048:1,2013-04-02T02:00:00Z,27.9396,-96.8429,2.0,241.7915453,22.6159457,-99999.0,'11111222,11111222,99999999' 
TABS,ioos:station:wmo:42048:1,2013-04-02T02:30:00Z,27.9396,-96.8429,2.0,232.084745,23.90597624,-99999.0,'11111222,11111222,99999999' 
TABS,ioos:station:wmo:42048:1,2013-04-02T03:00:00Z,27.9396,-96.8429,2.0,242.0813174,24.04891058,-99999.0,'11111222,11111222,99999999' 
TABS,ioos:station:wmo:42048:1,2013-04-02T03:30:00Z,27.9396,-96.8429,2.0,241.9109415,29.09705999,-99999.0,'11111222,11111222,99999999' 
TABS,ioos:station:wmo:42048:1,2013-04-02T04:00:00Z,27.9396,-96.8429,2.0,236.4805366,27.88767649,-99999.0,'11111222,11111222,99999999' 
TABS,ioos:station:wmo:42048:1,2013-04-02T04:30:00Z,27.9396,-96.8429,2.0,238.1250006,28.80339737,-99999.0,'11111222,11111222,99999999' 
TABS,ioos:station:wmo:42048:1,2013-04-02T05:00:00Z,27.9396,-96.8429,2.0,226.9267673,28.59742995,-99999.0,'11111222,11111222,99999999' 
TABS,ioos:station:wmo:42048:1,2013-04-02T05:30:00Z,27.9396,-96.8429,2.0,219.9780078,29.72773789,-99999.0,'11111222,11111222,99999999' 
TABS,ioos:station:wmo:42048:1,2013-04-02T06:00:00Z,27.9396,-96.8429,2.0,219.2806251,28.52525197,-99999.0,'11111222,11111222,99999999' 
TABS,ioos:station:wmo:42048:1,2013-04-02T06:30:00Z,27.9396,-96.8429,2.0,215.5467318,28.50159645,-99999.0,'11111222,11111222,99999999' 
TABS,ioos:station:wmo:42048:1,2013-04-02T07:00:00Z,27.9396,-96.8429,2.0,212.2353079,29.28373781,-99999.0,'11111222,11111222,99999999' 
TABS,ioos:station:wmo:42048:1,2013-04-02T07:30:00Z,27.9396,-96.8429,2.0,208.7034161,26.48454833,-99999.0,'11111222,11111222,99999999' 
TABS,ioos:station:wmo:42048:1,2013-04-02T08:00:00Z,27.9396,-96.8429,2.0,212.4359567,31.43406592,-99999.0,'11111222,11111222,99999999' 
TABS,ioos:station:wmo:42048:1,2013-04-02T08:30:00Z,27.9396,-96.8429,2.0,208.3102229,31.86086314,-99999.0,'11111222,11111222,99999999' 
TABS,ioos:station:wmo:42048:1,2013-04-02T09:00:00Z,27.9396,-96.8429,2.0,207.4768128,30.62459469,-99999.0,'11111222,11111222,99999999' 
TABS,ioos:station:wmo:42048:1,2013-04-02T09:30:00Z,27.9396,-96.8429,2.0,201.5208507,35.30110621,-99999.0,'11111222,11111222,99999999' 
TABS,ioos:station:wmo:42048:1,2013-04-02T10:00:00Z,27.9396,-96.8429,2.0,202.4172873,42.48026483,-99999.0,'11111222,11111222,99999999' 
TABS,ioos:station:wmo:42048:1,2013-04-02T10:30:00Z,27.9396,-96.8429,2.0,199.9954034,46.79060696,-99999.0,'11111222,11111222,99999999' 
TABS,ioos:station:wmo:42048:1,2013-04-02T11:00:00Z,27.9396,-96.8429,2.0,204.7703345,35.27561906,-99999.0,'11111222,11111222,99999999' 
TABS,ioos:station:wmo:42048:1,2013-04-02T11:30:00Z,27.9396,-96.8429,2.0,205.7750032,26.92928889,-99999.0,'11111222,11111222,99999999' 
TABS,ioos:station:wmo:42048:1,2013-04-02T12:00:00Z,27.9396,-96.8429,2.0,194.5626556,27.44163989,-99999.0,'11111222,11111222,99999999' 
TABS,ioos:station:wmo:42048:1,2013-04-02T12:30:00Z,27.9396,-96.8429,2.0,243.9242845,9.418662325,-99999.0,'11133222,11111222,99999999' 
TABS,ioos:station:wmo:42048:1,2013-04-02T13:00:00Z,27.9396,-96.8429,2.0,215.8441501,7.599217065,-99999.0,'11133222,11111222,99999999' 
TABS,ioos:station:wmo:42048:1,2013-04-02T13:30:00Z,27.9396,-96.8429,2.0,229.7685198,12.92824041,-99999.0,'11111222,11111222,99999999' 
TABS,ioos:station:wmo:42048:1,2013-04-02T14:00:00Z,27.9396,-96.8429,2.0,245.639675,15.80728946,-99999.0,'11111222,11111222,99999999' 
TABS,ioos:station:wmo:42048:1,2013-04-02T14:30:00Z,27.9396,-96.8429,2.0,263.0883681,10.63729289,-99999.0,'11111222,11111222,99999999' 
TABS,ioos:station:wmo:42048:1,2013-04-02T15:00:00Z,27.9396,-96.8429,2.0,280.5672987,11.34234984,-99999.0,'11111222,11111222,99999999' 
TABS,ioos:station:wmo:42048:1,2013-04-02T15:30:00Z,27.9396,-96.8429,2.0,241.9322242,13.30470593,-99999.0,'11111222,11111222,99999999' 
TABS,ioos:station:wmo:42048:1,2013-04-02T16:00:00Z,27.9396,-96.8429,2.0,247.0468135,14.69332502,-99999.0,'11111222,11111222,99999999' 
TABS,ioos:station:wmo:42048:1,2013-04-02T16:30:00Z,27.9396,-96.8429,2.0,249.1998572,16.78385236,-99999.0,'11111222,11111222,99999999' 
TABS,ioos:station:wmo:42048:1,2013-04-02T17:00:00Z,27.9396,-96.8429,2.0,253.2435919,21.26279615,-99999.0,'11111222,11111222,99999999' 
TABS,ioos:station:wmo:42048:1,2013-04-02T17:30:00Z,27.9396,-96.8429,2.0,245.455208,20.2937552,-99999.0,'11111222,11111222,99999999' 
TABS,ioos:station:wmo:42048:1,2013-04-02T18:00:00Z,27.9396,-96.8429,2.0,251.5646734,22.61028527,-99999.0,'11111222,11111222,99999999' 
TABS,ioos:station:wmo:42048:1,2013-04-02T18:30:00Z,27.9396,-96.8429,2.0,248.5702046,22.88186181,-99999.0,'11111222,11111222,99999999' 
TABS,ioos:station:wmo:42048:1,2013-04-02T19:00:00Z,27.9396,-96.8429,2.0,251.4317371,27.2589068,-99999.0,'11111222,11111222,99999999' 
TABS,ioos:station:wmo:42048:1,2013-04-02T19:30:00Z,27.9396,-96.8429,2.0,251.4434129,29.88359082,-99999.0,'11111222,11111222,99999999' 
TABS,ioos:station:wmo:42048:1,2013-04-02T20:00:00Z,27.9396,-96.8429,2.0,253.1854903,31.52787338,-99999.0,'11111222,11111222,99999999' 
TABS,ioos:station:wmo:42048:1,2013-04-02T20:30:00Z,27.9396,-96.8429,2.0,254.014725,31.88276807,-99999.0,'11111222,11111222,99999999' 
TABS,ioos:station:wmo:42048:1,2013-04-02T21:00:00Z,27.9396,-96.8429,2.0,261.5558413,31.25883075,-99999.0,'11111222,11111222,99999999' 
TABS,ioos:station:wmo:42048:1,2013-04-02T21:30:00Z,27.9396,-96.8429,2.0,263.1646259,29.15721866,-99999.0,'11111222,11111222,99999999' 
TABS,ioos:station:wmo:42048:1,2013-04-02T22:00:00Z,27.9396,-96.8429,2.0,257.8865342,28.40236786,-99999.0,'11111222,11111222,99999999' 
TABS,ioos:station:wmo:42048:1,2013-04-02T22:30:00Z,27.9396,-96.8429,2.0,263.6524994,27.49855451,-99999.0,'11111222,11111222,99999999' 
TABS,ioos:station:wmo:42048:1,2013-04-02T23:00:00Z,27.9396,-96.8429,2.0,265.9067601,28.30217836,-99999.0,'11111222,11111222,99999999' 
TABS,ioos:station:wmo:42048:1,2013-04-02T23:30:00Z,27.9396,-96.8429,2.0,254.3557115,26.62634034,-99999.0,'11111222,11111222,99999999' 
TABS,ioos:station:wmo:42048:1,2013-04-03T00:00:00Z,27.9396,-96.8429,2.0,248.2856948,26.75872942,-99999.0,'11111222,11111222,99999999' 
TABS,ioos:station:wmo:42048:1,2013-04-03T00:30:00Z,27.9396,-96.8429,2.0,232.8032287,22.81037045,-99999.0,'11111222,11111222,99999999' 
TABS,ioos:station:wmo:42048:1,2013-04-03T01:00:00Z,27.9396,-96.8429,2.0,231.1489401,23.43400307,-99999.0,'11111222,11111222,99999999' 
TABS,ioos:station:wmo:42048:1,2013-04-03T01:30:00Z,27.9396,-96.8429,2.0,225.9197329,22.89906985,-99999.0,'11111222,11111222,99999999' 
TABS,ioos:station:wmo:42048:1,2013-04-03T02:00:00Z,27.9396,-96.8429,2.0,224.3450123,21.66009464,-99999.0,'11111222,11111222,99999999' 
TABS,ioos:station:wmo:42048:1,2013-04-03T02:30:00Z,27.9396,-96.8429,2.0,230.278318,23.51911988,-99999.0,'11111222,11111222,99999999' 
TABS,ioos:station:wmo:42048:1,2013-04-03T03:00:00Z,27.9396,-96.8429,2.0,225.6012842,22.89737976,-99999.0,'11111222,11111222,99999999' 
TABS,ioos:station:wmo:42048:1,2013-04-03T03:30:00Z,27.9396,-96.8429,2.0,226.855838,24.45043967,-99999.0,'11111222,11111222,99999999' 
TABS,ioos:station:wmo:42048:1,2013-04-03T04:00:00Z,27.9396,-96.8429,2.0,228.3317715,29.07588864,-99999.0,'11111222,11111222,99999999' 
TABS,ioos:station:wmo:42048:1,2013-04-03T04:30:00Z,27.9396,-96.8429,2.0,227.4945682,32.97536201,-99999.0,'11111222,11111222,99999999' 
TABS,ioos:station:wmo:42048:1,2013-04-03T05:00:00Z,27.9396,-96.8429,2.0,225.8920677,31.78123346,-99999.0,'11111222,11111222,99999999' 
TABS,ioos:station:wmo:42048:1,2013-04-03T05:30:00Z,27.9396,-96.8429,2.0,230.1502719,33.47525205,-99999.0,'11111222,11111222,99999999' 
TABS,ioos:station:wmo:42048:1,2013-04-03T06:00:00Z,27.9396,-96.8429,2.0,235.558391,35.53992262,-99999.0,'11111222,11111222,99999999' 
TABS,ioos:station:wmo:42048:1,2013-04-03T06:30:00Z,27.9396,-96.8429,2.0,236.8780349,46.68586617,-99999.0,'11111222,11111222,99999999' 
TABS,ioos:station:wmo:42048:1,2013-04-03T07:00:00Z,27.9396,-96.8429,2.0,235.9080857,51.45248002,-99999.0,'11111222,11111222,99999999' 
TABS,ioos:station:wmo:42048:1,2013-04-03T07:30:00Z,27.9396,-96.8429,2.0,233.1662307,47.14000955,-99999.0,'11111222,11111222,99999999' 
TABS,ioos:station:wmo:42048:1,2013-04-03T08:00:00Z,27.9396,-96.8429,2.0,230.1592654,48.43508026,-99999.0,'11111222,11111222,99999999' 
TABS,ioos:station:wmo:42048:1,2013-04-03T08:30:00Z,27.9396,-96.8429,2.0,227.9313012,43.55113431,-99999.0,'11111222,11111222,99999999' 
TABS,ioos:station:wmo:42048:1,2013-04-03T09:00:00Z,27.9396,-96.8429,2.0,225.656931,43.15049478,-99999.0,'11111222,11111222,99999999' 
TABS,ioos:station:wmo:42048:1,2013-04-03T09:30:00Z,27.9396,-96.8429,2.0,218.657496,44.48765784,-99999.0,'11111222,11111222,99999999' 
TABS,ioos:station:wmo:42048:1,2013-04-03T10:00:00Z,27.9396,-96.8429,2.0,221.8895476,44.18146783,-99999.0,'11111222,11111222,99999999' 
TABS,ioos:station:wmo:42048:1,2013-04-03T10:30:00Z,27.9396,-96.8429,2.0,224.700102,43.27552657,-99999.0,'11111222,11111222,99999999' 
TABS,ioos:station:wmo:42048:1,2013-04-03T11:00:00Z,27.9396,-96.8429,2.0,222.3660723,43.24282715,-99999.0,'11111222,11111222,99999999' 
TABS,ioos:station:wmo:42048:1,2013-04-03T11:30:00Z,27.9396,-96.8429,2.0,223.9205483,42.80169389,-99999.0,'11111222,11111222,99999999' 
TABS,ioos:station:wmo:42048:1,2013-04-03T12:00:00Z,27.9396,-96.8429,2.0,227.4631011,43.10263565,-99999.0,'11111222,11111222,99999999' 
TABS,ioos:station:wmo:42048:1,2013-04-03T12:30:00Z,27.9396,-96.8429,2.0,227.5359038,42.98470077,-99999.0,'11111222,11111222,99999999' 
TABS,ioos:station:wmo:42048:1,2013-04-03T13:00:00Z,27.9396,-96.8429,2.0,228.8960437,44.53753473,-99999.0,'11111222,11111222,99999999' 
TABS,ioos:station:wmo:42048:1,2013-04-03T13:30:00Z,27.9396,-96.8429,2.0,231.2743472,36.8773345,-99999.0,'11111222,11111222,99999999' 
TABS,ioos:station:wmo:42048:1,2013-04-03T14:00:00Z,27.9396,-96.8429,2.0,229.3479444,40.66254542,-99999.0,'11111222,11111222,99999999' 
TABS,ioos:station:wmo:42048:1,2013-04-03T14:30:00Z,27.9396,-96.8429,2.0,225.8587584,54.70792996,-99999.0,'11111222,11111222,99999999' 
TABS,ioos:station:wmo:42048:1,2013-04-03T15:00:00Z,27.9396,-96.8429,2.0,218.9928973,57.70562018,-99999.0,'11111222,11111222,99999999' 
TABS,ioos:station:wmo:42048:1,2013-04-03T15:30:00Z,27.9396,-96.8429,2.0,220.7124954,56.84781878,-99999.0,'11111222,11111222,99999999' 
TABS,ioos:station:wmo:42048:1,2013-04-03T16:00:00Z,27.9396,-96.8429,2.0,217.4993224,60.77967094,-99999.0,'11111222,11111222,99999999' 
TABS,ioos:station:wmo:42048:1,2013-04-03T16:30:00Z,27.9396,-96.8429,2.0,214.0450326,62.62408243,-99999.0,'11111222,11111222,99999999' 
TABS,ioos:station:wmo:42048:1,2013-04-03T17:00:00Z,27.9396,-96.8429,2.0,214.6282716,63.66870896,-99999.0,'11111222,11111222,99999999' 
TABS,ioos:station:wmo:42048:1,2013-04-03T17:30:00Z,27.9396,-96.8429,2.0,215.4673407,70.36707327,-99999.0,'11111222,11111222,99999999' 
TABS,ioos:station:wmo:42048:1,2013-04-03T18:00:00Z,27.9396,-96.8429,2.0,217.7338919,70.67004033,-99999.0,'11111222,11111222,99999999' 
TABS,ioos:station:wmo:42048:1,2013-04-03T18:30:00Z,27.9396,-96.8429,2.0,219.9931775,68.71008077,-99999.0,'11111222,11111222,99999999' 
TABS,ioos:station:wmo:42048:1,2013-04-03T19:00:00Z,27.9396,-96.8429,2.0,216.6354479,65.08854354,-99999.0,'11111222,11111222,99999999' 
TABS,ioos:station:wmo:42048:1,2013-04-03T19:30:00Z,27.9396,-96.8429,2.0,215.9534916,67.54863433,-99999.0,'11111222,11111222,99999999' 
TABS,ioos:station:wmo:42048:1,2013-04-03T20:00:00Z,27.9396,-96.8429,2.0,215.7267239,64.37480641,-99999.0,'11111222,11111222,99999999' 
TABS,ioos:station:wmo:42048:1,2013-04-03T20:30:00Z,27.9396,-96.8429,2.0,217.2434931,69.26547481,-99999.0,'11111222,11111222,99999999' 
TABS,ioos:station:wmo:42048:1,2013-04-03T21:00:00Z,27.9396,-96.8429,2.0,217.5597285,65.25673375,-99999.0,'11111222,11111222,99999999' 
TABS,ioos:station:wmo:42048:1,2013-04-03T21:30:00Z,27.9396,-96.8429,2.0,221.9926951,66.18439771,-99999.0,'11111222,11111222,99999999' 
TABS,ioos:station:wmo:42048:1,2013-04-03T22:00:00Z,27.9396,-96.8429,2.0,214.9576155,60.54370735,-99999.0,'11111222,11111222,99999999' 
TABS,ioos:station:wmo:42048:1,2013-04-03T22:30:00Z,27.9396,-96.8429,2.0,213.9975958,61.94981194,-99999.0,'11111222,11111222,99999999' 
TABS,ioos:station:wmo:42048:1,2013-04-03T23:00:00Z,27.9396,-96.8429,2.0,213.2515436,68.1718747,-99999.0,'11111222,11111222,99999999' 
TABS,ioos:station:wmo:42048:1,2013-04-03T23:30:00Z,27.9396,-96.8429,2.0,213.7712128,74.15239713,-99999.0,'11111222,11111222,99999999' 
TABS,ioos:station:wmo:42048:1,2013-04-04T00:00:00Z,27.9396,-96.8429,2.0,213.5881583,70.36937757,-99999.0,'11111222,11111222,99999999' 
TABS,ioos:station:wmo:42048:1,2013-04-04T00:30:00Z,27.9396,-96.8429,2.0,213.0362152,62.7323529,-99999.0,'11111222,11111222,99999999' 
TABS,ioos:station:wmo:42048:1,2013-04-04T01:00:00Z,27.9396,-96.8429,2.0,217.472965,57.16716977,-99999.0,'11111222,11111222,99999999' 
TABS,ioos:station:wmo:42048:1,2013-04-04T01:30:00Z,27.9396,-96.8429,2.0,222.5780348,42.50679475,-99999.0,'11111222,11111222,99999999' 
TABS,ioos:station:wmo:42048:1,2013-04-04T02:00:00Z,27.9396,-96.8429,2.0,225.1206461,40.19203901,-99999.0,'11111222,11111222,99999999' 
TABS,ioos:station:wmo:42048:1,2013-04-04T02:30:00Z,27.9396,-96.8429,2.0,223.3938585,43.65270324,-99999.0,'11111222,11111222,99999999' 
TABS,ioos:station:wmo:42048:1,2013-04-04T03:00:00Z,27.9396,-96.8429,2.0,223.3830148,41.8561692,-99999.0,'11111222,11111222,99999999' 
TABS,ioos:station:wmo:42048:1,2013-04-04T03:30:00Z,27.9396,-96.8429,2.0,220.5782419,38.24809668,-99999.0,'11111222,11111222,99999999' 
TABS,ioos:station:wmo:42048:1,2013-04-04T04:00:00Z,27.9396,-96.8429,2.0,214.8983313,36.68771184,-99999.0,'11111222,11111222,99999999' 
TABS,ioos:station:wmo:42048:1,2013-04-04T04:30:00Z,27.9396,-96.8429,2.0,215.7053399,41.24251447,-99999.0,'11111222,11111222,99999999' 
TABS,ioos:station:wmo:42048:1,2013-04-04T05:00:00Z,27.9396,-96.8429,2.0,218.929491,38.11462974,-99999.0,'11111222,11111222,99999999' 
TABS,ioos:station:wmo:42048:1,2013-04-04T05:30:00Z,27.9396,-96.8429,2.0,218.402419,40.37444736,-99999.0,'11111222,11111222,99999999' 
TABS,ioos:station:wmo:42048:1,2013-04-04T06:00:00Z,27.9396,-96.8429,2.0,222.7775243,35.01397435,-99999.0,'11111222,11111222,99999999' 
TABS,ioos:station:wmo:42048:1,2013-04-04T06:30:00Z,27.9396,-96.8429,2.0,219.2231604,40.958551,-99999.0,'11111222,11111222,99999999' 
TABS,ioos:station:wmo:42048:1,2013-04-04T07:00:00Z,27.9396,-96.8429,2.0,221.5460986,37.67943869,-99999.0,'11111222,11111222,99999999' 
TABS,ioos:station:wmo:42048:1,2013-04-04T07:30:00Z,27.9396,-96.8429,2.0,216.6397882,49.36439709,-99999.0,'11111222,11111222,99999999' 
TABS,ioos:station:wmo:42048:1,2013-04-04T08:00:00Z,27.9396,-96.8429,2.0,218.0795903,50.76531986,-99999.0,'11111222,11111222,99999999' 
TABS,ioos:station:wmo:42048:1,2013-04-04T08:30:00Z,27.9396,-96.8429,2.0,225.611297,47.03235163,-99999.0,'11111222,11111222,99999999' 
TABS,ioos:station:wmo:42048:1,2013-04-04T09:00:00Z,27.9396,-96.8429,2.0,221.0137749,41.40225235,-99999.0,'11111222,11111222,99999999' 
TABS,ioos:station:wmo:42048:1,2013-04-04T09:30:00Z,27.9396,-96.8429,2.0,222.2753958,38.23404896,-99999.0,'11111222,11111222,99999999' 
TABS,ioos:station:wmo:42048:1,2013-04-04T10:00:00Z,27.9396,-96.8429,2.0,219.0060931,41.30871579,-99999.0,'11111222,11111222,99999999' 
TABS,ioos:station:wmo:42048:1,2013-04-04T10:30:00Z,27.9396,-96.8429,2.0,220.1863472,41.966296,-99999.0,'11111222,11111222,99999999' 
TABS,ioos:station:wmo:42048:1,2013-04-04T11:00:00Z,27.9396,-96.8429,2.0,220.7024151,43.50330217,-99999.0,'11111222,11111222,99999999' 
TABS,ioos:station:wmo:42048:1,2013-04-04T11:30:00Z,27.9396,-96.8429,2.0,224.1401422,35.35224604,-99999.0,'11111222,11111222,99999999' 
TABS,ioos:station:wmo:42048:1,2013-04-04T12:00:00Z,27.9396,-96.8429,2.0,227.0454743,37.43688155,-99999.0,'11111222,11111222,99999999' 
TABS,ioos:station:wmo:42048:1,2013-04-04T12:30:00Z,27.9396,-96.8429,2.0,229.0751603,31.34044192,-99999.0,'11111222,11111222,99999999' 
TABS,ioos:station:wmo:42048:1,2013-04-04T13:00:00Z,27.9396,-96.8429,2.0,230.4298577,22.71521517,-99999.0,'11111222,11111222,99999999' 
TABS,ioos:station:wmo:42048:1,2013-04-04T13:30:00Z,27.9396,-96.8429,2.0,213.2944604,30.14867327,-99999.0,'11111222,11111222,99999999' 
TABS,ioos:station:wmo:42048:1,2013-04-04T14:00:00Z,27.9396,-96.8429,2.0,203.3754494,37.37786778,-99999.0,'11111222,11111222,99999999' 
TABS,ioos:station:wmo:42048:1,2013-04-04T14:30:00Z,27.9396,-96.8429,2.0,202.0591603,32.16461565,-99999.0,'11111222,11111222,99999999' 
TABS,ioos:station:wmo:42048:1,2013-04-04T15:00:00Z,27.9396,-96.8429,2.0,225.3076436,27.62706101,-99999.0,'11111222,11111222,99999999' 
TABS,ioos:station:wmo:42048:1,2013-04-04T15:30:00Z,27.9396,-96.8429,2.0,227.053672,21.89902509,-99999.0,'11111222,11111222,99999999' 
TABS,ioos:station:wmo:42048:1,2013-04-04T16:00:00Z,27.9396,-96.8429,2.0,224.8368205,24.87611706,-99999.0,'11111222,11111222,99999999' 